Location: Fluertsh�userhof
(48.7537°N, 10.3850°E)
Time: 15:49:33
(UTC+00:00)

Okean-O - Pass Details

Date: 18 September 2020
Orbit: 639 x 641 km, 98.2° (Epoch: 23 October)

Event Time Altitude Azimuth Distance (km) Brightness Sun altitude
Rises 18:06:17 0° 181° (S) 2,934 5.9 -7.7°
Reaches altitude 10° 18:08:34 10° 187° (S) 2,029 5.2 -8.1°
Maximum altitude 18:12:48 45° 261° (W) 877 3.9 -8.8°
Drops below altitude 10° 18:17:05 10° 334° (NNW) 2,046 5.8 -9.5°
Sets 18:19:23 0° 341° (NNW) 2,960 6.5 -9.8°
